Tracking 19817 objects as of 19-Aug-2019
HD Live streaming from Space Station
objects crossing your sky now

COSMOS 1755

Track COSMOS 1755 now!
10-day predictions
COSMOS 1755 is classified as:


NORAD ID: 16765
Int'l Code: 1986-042H
Perigee: 1,431.4 km
Apogee: 1,476.0 km
Inclination: 74.0 °
Period: 114.8 minutes
Semi major axis: 7824 km
RCS: 0.6969 m2 (medium)
Launch date: June 6, 1986
Source: Commonwealth of Independent States (former USSR) (CIS)
Launch site: PLESETSK MISSILE AND SPACE COMPLEX (PKMTR)
aabbcc
Your satellite tracking list
Your tracking list is empty




NASA's NSSDC Master Catalog

Two Line Element Set (TLE):
1 16765U 86042H   19230.68102946 -.00000009 +00000-0 +42055-4 0  9996
2 16765 074.0161 268.5683 0028462 110.6801 005.6969 12.54298920520186
Source of the keplerian elements: AFSPC